Theta_e
281 281 281 282 283 283 284 285 285 285 285 285 285 284 285 284 285 285 285 285 285 285 284 284 284 284 284 283 283 283 284 283 284 284 284 284 284 284 284 284 283 284 284 284 284 284 284 284 284 284 284 284 284 285 285 285 286 285 285 286 286 286
281 281 281 282 283 284 285 285 285 285 285 284 285 285 285 284 284 284 284 285 284 284 284 283 282 281 281 281 281 282 281 282 282 282 282 282 282 282 282 283 283 283 283 283 283 283 284 284 284 284 284 284 284 284 284 285 285 285 285 286 286 286
284 285 285 284 284 283 283 283 284 284 283 283 283 283 283 283 283 283 283 283 283 282 282 282 281 281 280 280 280 280 280 280 280 280 280 281 282 282 282 281 282 282 282 282 283 283 283 283 283 283 283 283 283 283 283 284 284 284 285 285 285 286
283 283 283 282 283 282 282 282 282 283 284 283 282 283 282 283 282 283 283 282 282 281 281 281 281 281 280 280 280 280 281 281 281 281 281 281 282 281 282 281 281 281 280 281 282 282 282 282 282 282 283 282 282 282 284 284 283 283 283 284 284 285
283 282 282 282 282 282 282 282 283 282 282 282 281 282 282 282 282 282 282 281 281 281 280 280 280 280 280 280 280 279 280 280 280 281 281 281 282 281 281 281 281 281 281 280 281 281 281 282 282 282 282 282 282 282 282 283 283 282 282 282 283 284
283 283 283 283 282 282 281 281 281 281 281 281 282 281 281 281 281 282 281 281 281 280 280 280 280 280 280 280 279 279 279 279 280 280 280 281 280 281 281 281 281 280 280 280 280 281 281 281 281 281 281 281 281 281 281 282 282 282 282 282 282 283
280 281 281 281 281 281 281 281 281 280 281 281 281 281 281 281 281 281 281 281 280 279 278 278 278 278 278 278 278 278 278 278 279 279 279 279 279 279 280 280 280 280 280 280 280 280 281 281 281 280 281 281 281 281 281 281 281 282 282 282 282 283
279 279 279 279 280 279 280 280 280 279 279 279 279 279 279 279 279 279 279 278 278 278 277 277 277 277 277 278 278 278 278 278 278 278 279 278 278 279 279 279 279 280 279 280 280 280 280 280 280 280 280 280 281 281 281 281 281 281 281 281 282 282
278 279 278 278 279 278 278 278 278 278 278 277 277 277 277 277 277 277 277 277 276 277 276 276 277 277 277 277 278 278 278 278 278 278 278 278 278 278 278 279 279 279 279 279 279 279 280 280 280 280 280 280 280 280 280 280 280 280 280 281 281 281
278 278 278 278 277 276 277 277 277 277 277 277 277 277 277 278 277 276 276 276 276 276 276 276 277 277 277 277 277 277 277 277 277 277 277 277 277 277 277 277 278 278 278 279 279 279 279 279 279 279 280 280 280 280 279 279 279 279 279 280 280 281
279 278 278 277 276 277 278 278 277 277 276 276 276 276 276 276 275 275 275 275 275 275 276 276 276 276 276 276 276 276 276 276 276 276 275 275 275 276 276 276 276 276 276 277 277 278 278 278 278 279 279 279 279 280 280 280 280 280 279 279 280 280
277 276 276 277 277 277 277 277 277 276 276 276 275 275 275 274 274 274 274 274 274 274 274 274 274 274 274 274 274 273 273 272 272 272 272 272 273 273 274 274 274 275 274 275 275 276 276 277 277 279 281 281 280 279 280 280 280 280 279 279 280 280
276 277 277 277 277 277 277 277 276 275 274 274 274 274 274 273 273 273 272 272 273 273 273 273 273 273 272 272 271 270 270 270 270 270 270 270 270 271 271 272 272 272 273 273 273 273 274 274 275 278 280 281 282 280 278 278 278 279 279 279 278 278
277 277 277 277 277 276 276 275 274 274 273 273 273 273 272 272 272 271 271 271 272 272 272 272 272 271 270 270 269 269 268 268 268 268 268 268 268 269 269 269 269 270 270 270 270 270 270 271 274 276 277 278 279 279 277 277 277 278 278 278 278 278
277 277 277 276 276 274 274 274 273 272 272 272 272 272 271 270 270 270 270 271 271 271 271 270 269 268 268 267 267 267 266 266 266 266 266 266 266 267 266 267 266 266 267 267 267 267 268 268 271 274 275 276 277 278 277 276 276 276 276 276 277 277
277 277 276 275 274 273 272 272 272 272 272 271 270 270 270 269 269 269 269 269 269 269 269 268 266 266 265 265 265 265 264 264 264 264 264 265 265 264 264 264 264 264 264 265 265 265 265 265 268 273 274 275 276 276 276 274 274 275 275 276 276 276
277 275 273 272 272 272 271 271 270 270 270 270 269 269 268 268 267 267 268 267 267 266 265 265 264 264 264 263 263 263 262 262 262 263 263 263 263 263 262 262 262 263 263 263 263 263 263 264 270 272 273 273 274 274 274 271 271 271 272 273 274 275
276 274 272 272 271 270 270 269 269 268 268 268 268 267 265 266 265 265 266 265 264 264 265 264 263 262 262 262 262 261 261 261 261 261 262 262 262 262 262 262 262 261 261 262 262 262 262 263 269 270 271 272 273 274 270 269 269 269 269 270 271 272
274 272 271 270 270 269 269 269 267 267 266 266 266 265 264 264 263 264 264 263 263 263 263 263 262 261 261 261 260 260 260 260 260 260 261 260 260 261 260 260 261 261 261 261 261 261 261 261 265 269 270 271 272 271 268 268 268 268 268 269 270 270
272 271 270 269 268 268 268 267 265 265 264 264 264 263 264 262 263 264 262 262 262 262 262 262 261 260 260 259 259 259 260 260 260 260 260 260 259 259 259 260 260 260 260 260 260 260 260 261 264 268 269 270 271 271 268 267 267 267 267 268 269 270
271 270 269 268 266 266 266 264 263 263 263 263 263 263 261 262 263 262 262 262 262 262 261 261 260 260 259 259 259 259 259 259 259 259 260 259 259 259 259 259 259 259 259 259 260 262 261 260 262 267 268 270 271 269 268 267 267 266 266 267 267 269
269 268 266 265 266 265 264 263 262 261 262 262 263 261 260 262 262 262 262 262 262 261 260 260 259 259 258 258 258 258 258 259 259 259 259 258 258 258 258 258 258 258 258 259 259 259 260 260 260 263 268 269 270 271 268 267 266 266 266 267 267 267
269 267 265 265 265 264 263 262 261 261 261 261 261 260 261 261 261 261 261 261 260 259 259 259 258 258 258 258 258 258 258 258 258 258 258 257 257 257 257 257 257 257 258 259 259 259 260 260 260 262 268 269 270 271 270 267 267 267 266 266 266 267
266 265 264 264 264 263 262 260 259 260 260 260 259 259 261 261 261 260 259 259 259 258 258 257 257 258 257 258 257 257 257 258 258 257 257 257 257 256 256 256 257 257 257 258 259 259 259 261 263 262 266 269 270 271 272 268 267 268 267 267 267 267
264 264 263 263 262 262 262 258 257 258 259 258 259 260 259 260 259 259 258 258 257 257 257 257 256 257 257 257 257 257 256 257 257 256 257 256 256 256 255 256 256 257 257 257 258 259 259 260 261 265 264 268 270 271 272 272 270 272 269 268 266 267
264 263 262 262 261 260 261 257 256 257 257 258 260 259 259 258 257 257 256 256 256 256 256 256 256 256 256 256 256 256 256 256 256 256 256 256 256 255 255 256 256 256 256 256 257 258 259 260 260 263 267 266 270 271 272 272 273 273 270 269 268 268
262 262 261 261 259 259 257 257 256 256 255 258 258 257 256 256 254 255 255 254 254 255 255 255 255 255 255 255 255 255 256 256 255 255 256 256 255 255 255 255 255 255 255 256 256 257 258 259 260 261 263 268 269 271 271 272 272 273 273 269 269 269
259 258 258 259 258 258 258 257 256 254 256 258 257 256 255 254 253 254 254 254 255 255 255 255 255 255 255 255 256 255 256 255 255 255 255 255 255 255 255 255 255 255 255 256 257 257 258 260 261 261 261 264 266 267 269 271 272 272 273 272 270 273
258 257 257 256 258 257 257 256 255 256 257 256 257 257 254 252 253 254 254 254 254 254 254 254 255 255 256 255 255 256 256 256 255 255 255 255 255 255 255 255 255 256 257 258 258 259 261 261 262 263 263 263 263 263 265 266 266 269 271 268 266 268
258 256 256 256 258 257 256 255 254 255 255 255 256 253 252 253 253 254 254 254 254 254 254 254 256 256 255 255 255 255 255 256 255 255 255 255 256 255 256 256 257 258 258 259 260 262 263 263 264 264 264 265 265 266 266 266 265 264 264 265 265 266
256 256 255 256 257 256 255 253 254 253 255 256 254 253 251 253 254 254 253 253 254 254 255 255 255 255 255 255 255 255 256 255 256 256 257 259 259 258 258 258 259 260 262 263 263 263 263 263 264 265 269 269 273 270 269 268 268 268 267 269 272 269
255 254 254 255 256 254 253 253 253 253 256 254 253 252 251 253 253 252 252 253 253 254 254 254 254 254 255 254 255 255 255 259 263 263 261 261 264 268 269 269 265 266 266 266 266 266 265 264 266 272 273 273 274 274 275 274 275 275 273 274 275 273
255 254 253 255 255 253 253 253 253 253 254 255 254 253 252 251 252 253 253 253 253 254 255 254 254 255 255 255 255 255 255 255 257 263 266 266 266 267 269 269 270 271 271 268 266 267 271 272 272 273 273 273 273 274 274 274 275 275 275 275 272 270
254 254 254 255 254 253 252 252 252 252 253 252 252 252 251 251 252 252 253 253 253 254 254 254 254 255 255 255 255 255 255 255 254 256 262 265 265 266 267 268 269 270 270 270 269 268 266 269 272 273 273 273 273 274 274 274 275 275 275 275 275 269
255 254 254 253 252 251 252 251 252 252 252 253 252 252 252 253 252 252 252 253 253 254 254 255 254 254 254 254 254 254 255 254 254 254 255 258 264 265 266 266 267 268 268 269 270 270 270 270 271 272 272 273 273 274 273 273 274 275 275 274 269 265
253 253 252 251 251 251 251 252 253 253 252 253 253 251 250 250 251 252 252 252 253 253 254 254 254 254 254 255 255 254 255 255 255 255 255 255 256 257 261 263 264 265 267 268 269 269 270 270 271 271 272 272 273 274 273 273 271 273 273 270 266 264
252 251 252 253 253 253 253 253 253 253 252 251 250 249 249 250 251 251 253 255 255 254 254 254 255 254 254 254 254 254 255 255 256 256 256 255 255 255 255 256 258 262 266 264 265 267 269 269 270 270 271 272 272 272 272 271 266 264 264 265 265 265
253 252 252 253 252 252 250 252 253 253 251 249 249 249 249 250 251 252 253 253 254 254 254 254 254 254 254 254 255 256 256 256 256 256 255 256 256 256 256 256 257 258 263 266 266 267 267 268 269 270 271 270 270 269 269 262 262 263 263 264 264 265
Wind_Speed
3 3 4 4 4 3 3 3 3 5 5 5 5 6 4 4 4 4 3 4 4 3 4 4 5 4 4 3 4 4 5 6 6 5 5 5 5 5 6 6 6 6 6 6 7 7 8 7 7 7 6 5 6 5 6 6 5 5 6 6 5 6
3 3 4 4 4 4 4 4 4 6 5 5 6 6 6 6 7 6 7 6 6 7 6 5 4 4 4 4 5 7 6 5 6 6 6 7 6 5 5 6 6 7 7 6 6 7 7 7 7 7 7 7 7 6 6 6 5 5 6 7 6 5
4 3 2 2 1 2 2 2 2 1 2 2 3 3 4 3 4 4 4 4 4 4 4 4 3 4 3 4 4 4 4 4 4 4 4 4 6 5 6 7 8 8 8 8 8 7 7 7 8 7 6 6 7 8 7 8 7 6 6 6 8 6
4 2 1 1 0 1 2 1 1 1 0 0 1 0 1 1 2 2 3 3 3 3 3 4 3 3 3 3 4 4 4 5 6 6 6 7 7 5 7 8 6 5 6 7 9 9 9 8 7 7 6 7 7 8 6 7 8 9 9 6 7 8
4 3 2 1 2 2 1 1 1 1 2 1 1 1 3 2 3 2 2 2 3 3 4 4 4 3 4 4 4 4 4 5 5 6 6 8 9 8 7 7 8 8 8 8 8 8 8 8 9 8 7 8 8 9 8 7 8 9 9 9 10 9
2 2 2 3 2 2 3 3 3 3 3 3 3 3 4 3 3 3 2 3 3 3 3 4 4 5 5 5 5 5 6 6 6 6 6 7 6 8 8 8 8 8 8 9 9 9 9 10 9 9 8 9 9 9 10 9 9 9 9 9 10 9
3 4 4 4 4 4 4 4 4 4 4 3 4 4 3 3 3 3 3 2 3 4 5 6 5 5 5 5 5 5 5 5 5 5 5 6 7 6 7 7 5 7 7 8 10 11 11 11 10 11 11 9 8 9 10 10 9 9 10 10 10 10
4 4 4 4 4 4 4 4 3 3 4 4 4 5 6 5 4 4 4 4 3 4 4 4 4 4 4 4 4 5 5 6 5 6 6 5 8 8 6 7 7 7 9 9 8 9 9 10 10 11 11 11 11 10 10 10 10 10 11 11 11 11
4 5 5 5 5 1 3 3 2 1 2 4 4 3 2 3 3 3 4 3 4 3 3 3 4 4 4 5 6 6 6 7 7 7 8 8 8 9 10 10 11 10 9 10 10 9 10 10 10 10 11 11 10 11 12 12 11 11 10 11 12 12
5 5 5 1 2 2 2 2 3 4 4 4 4 5 5 5 5 4 4 3 3 3 5 5 5 5 5 5 5 6 6 6 8 8 8 8 9 9 9 9 10 10 9 11 11 11 11 11 12 11 10 9 9 10 11 12 13 14 14 13 12 12
6 4 0 0 2 4 4 4 4 4 4 3 3 4 5 4 3 4 4 4 4 5 6 6 5 4 5 6 6 6 7 8 8 9 9 9 10 10 11 11 11 12 12 11 10 12 11 11 11 10 9 11 13 12 12 12 12 13 14 14 14 14
3 3 4 5 5 4 3 3 3 4 5 5 4 5 4 3 3 3 3 3 3 4 4 4 3 4 4 5 6 6 7 7 8 8 8 9 9 10 10 11 11 11 12 13 13 12 11 11 10 12 23 21 15 14 13 13 13 13 13 14 14 15
5 6 6 5 5 5 4 4 3 3 3 3 3 4 3 4 5 5 6 7 6 7 8 8 9 9 9 9 9 8 9 10 9 8 8 8 7 9 9 9 11 10 10 11 12 12 11 10 12 24 25 26 27 19 15 14 14 14 15 14 14 15
8 8 8 7 5 5 5 5 4 4 5 4 5 4 4 5 5 6 6 6 7 7 8 8 8 9 10 10 10 11 11 11 11 11 11 11 11 10 10 10 9 10 10 11 12 12 11 11 17 24 24 26 27 24 18 15 14 13 13 13 14 13
9 8 7 5 5 5 3 3 5 6 4 5 3 3 5 5 5 5 6 6 6 6 6 7 7 7 8 8 9 9 10 11 11 11 11 13 12 11 12 11 12 11 10 11 11 14 12 12 19 22 24 24 24 25 22 14 14 14 14 14 15 15
5 5 5 5 5 5 4 5 6 4 3 2 2 3 4 4 5 4 5 5 5 5 6 7 6 7 7 7 8 8 9 10 10 10 9 10 10 10 11 10 13 11 11 11 12 12 14 14 17 23 24 23 24 24 22 15 15 16 14 14 14 14
6 7 7 6 5 4 4 6 4 2 3 3 3 3 5 4 4 4 4 3 4 6 5 6 6 7 7 8 8 8 8 9 10 10 9 9 9 10 10 11 11 11 11 10 12 11 15 12 21 23 24 24 25 25 22 15 15 15 16 17 17 16
9 9 7 5 5 5 5 4 2 3 3 2 4 4 3 3 3 4 2 3 4 4 6 5 6 6 7 8 8 8 10 9 9 10 10 9 9 8 7 9 8 11 11 10 10 12 12 13 22 24 24 25 24 26 15 12 12 13 14 14 14 15
7 8 7 6 5 5 4 3 3 3 2 3 3 2 3 2 2 2 2 3 4 5 4 5 6 7 7 8 9 9 9 10 10 9 7 10 10 9 9 8 8 9 10 12 10 13 12 12 17 23 24 24 25 20 12 13 13 14 14 14 13 13
7 6 7 7 6 5 3 3 3 3 2 1 1 1 2 1 2 1 2 4 4 5 5 6 5 7 8 8 9 10 10 9 9 9 7 9 11 11 9 8 10 8 8 11 12 10 13 13 16 24 24 25 25 21 15 12 12 14 14 15 15 14
8 8 7 6 6 4 3 3 3 2 0 1 1 1 1 2 1 2 3 4 5 5 5 5 5 6 8 9 9 9 10 10 10 9 8 8 8 10 8 9 11 9 8 8 12 18 18 14 16 22 23 25 24 19 13 13 12 15 14 14 14 14
8 6 6 5 5 3 3 2 1 0 1 1 1 1 1 2 1 2 3 5 5 5 5 5 6 7 8 10 10 9 9 9 9 9 9 9 7 9 9 9 9 12 10 9 11 11 11 13 12 15 25 24 25 24 16 12 11 13 14 13 14 13
6 7 6 5 4 3 2 2 1 0 1 1 1 2 2 1 2 3 4 5 5 5 6 5 6 9 9 8 10 9 9 8 9 10 9 10 9 8 9 10 10 10 11 9 10 10 11 10 13 14 24 25 25 26 22 12 11 11 11 12 14 12
7 7 5 3 4 3 1 2 1 1 2 1 3 3 2 2 3 4 4 5 5 6 6 7 7 7 8 8 8 9 10 8 8 9 9 9 9 10 10 9 10 9 10 9 9 10 11 12 19 15 20 25 26 25 27 16 12 14 14 13 11 11
6 6 5 4 3 2 1 2 1 1 1 3 4 2 2 3 3 4 5 6 6 7 7 7 8 9 7 8 8 9 11 9 8 8 8 10 10 9 10 10 10 10 11 10 9 9 10 11 12 21 19 23 26 27 26 27 22 26 18 14 13 13
6 5 4 4 3 2 1 2 1 1 2 5 3 2 2 3 4 4 5 6 7 7 7 7 8 8 7 8 9 8 10 10 9 8 8 8 8 9 9 9 9 10 10 11 10 9 9 10 10 15 23 22 27 26 27 27 27 27 17 15 12 11
7 5 4 3 2 1 1 1 1 1 3 3 1 3 3 4 4 5 6 7 7 7 7 7 7 8 7 8 7 9 9 10 8 9 7 8 8 8 9 10 9 10 10 10 11 11 10 10 11 11 16 24 25 27 27 27 28 26 27 18 13 14
5 5 4 2 2 1 1 1 1 2 4 2 3 3 4 4 5 5 7 7 6 7 7 8 8 7 8 8 6 7 8 9 9 8 9 8 8 8 9 10 10 10 10 11 10 11 11 11 10 11 10 12 16 18 25 29 29 28 28 26 21 27
6 5 4 3 2 3 1 2 2 3 3 4 4 4 4 4 5 6 7 7 7 6 6 7 7 7 6 6 6 6 8 8 7 7 9 9 9 9 9 11 10 11 10 11 11 11 11 11 9 9 9 10 10 11 13 15 16 23 25 18 14 17
5 4 4 3 4 3 2 2 3 3 4 4 5 4 4 4 5 6 7 7 7 6 6 7 8 9 8 7 6 8 8 8 7 7 8 10 10 10 11 10 11 12 13 11 11 11 10 10 10 10 11 12 11 11 10 10 10 10 10 11 12 14
4 4 3 3 2 2 2 3 3 3 4 5 4 4 4 5 5 6 6 6 6 7 6 6 7 7 8 8 7 7 8 9 9 9 9 10 10 10 10 8 9 10 11 10 11 10 8 8 9 9 16 18 23 20 16 12 10 9 8 12 20 15
4 4 3 2 2 2 3 4 4 4 4 4 4 4 4 5 5 5 6 6 6 6 6 6 7 6 7 7 8 9 9 12 18 14 11 11 18 25 26 22 14 13 11 11 9 9 9 11 12 24 30 29 29 30 30 28 27 25 20 22 29 19
3 3 2 2 2 2 3 4 4 4 5 4 4 4 4 4 4 5 6 5 5 7 7 7 7 7 7 7 8 7 9 10 12 19 21 20 21 23 24 24 26 26 24 16 12 12 24 26 28 28 27 29 28 29 30 30 29 29 28 25 16 10
3 3 3 2 2 3 4 4 4 4 5 4 4 4 4 4 4 5 6 6 6 7 7 6 7 7 7 8 7 7 8 9 11 15 18 20 18 20 23 23 23 22 20 22 20 17 12 19 25 27 27 27 28 27 29 29 29 29 28 24 23 11
3 2 2 2 3 3 4 4 5 5 4 4 4 3 4 4 4 6 6 6 7 7 8 7 6 7 7 8 9 9 8 9 9 12 15 18 21 20 16 18 18 18 20 23 24 25 23 22 23 26 27 27 27 27 27 29 29 26 23 23 12 7
2 2 2 3 4 4 4 4 5 4 4 4 4 3 4 4 5 5 5 5 7 7 7 6 6 7 7 7 7 8 8 8 9 10 11 13 16 20 18 11 11 15 21 24 27 26 24 24 25 26 27 27 27 27 27 26 18 20 21 17 10 7
2 2 3 3 3 3 4 5 5 4 4 4 4 3 4 4 5 5 6 10 9 5 6 6 6 7 7 7 7 8 8 8 9 9 10 10 11 12 13 16 18 18 19 19 18 21 24 25 26 26 26 26 25 25 26 23 12 11 10 10 7 8
2 3 3 3 3 3 4 6 5 4 4 4 3 3 4 4 5 5 5 5 6 6 5 6 6 6 7 7 8 7 8 8 9 10 9 10 9 9 11 13 13 14 20 26 22 23 24 26 26 25 25 24 24 23 23 12 11 10 10 10 10 10
Wind_Direction
64 72 67 50 47 47 48 39 36 40 35 35 48 40 39 31 34 32 40 45 34 33 29 30 25 27 25 17 11 14 16 9 2 359 345 335 337 336 340 343 344 348 347 352 342 341 341 339 342 343 341 342 333 329 321 318 329 324 311 300 300 292
105 74 68 52 29 24 14 21 23 27 13 22 18 17 17 14 15 14 13 3 16 360 3 6 5 13 11 9 10 3 4 349 351 346 346 339 333 332 336 340 343 343 344 341 336 331 331 329 330 335 334 334 327 323 321 312 320 313 305 304 301 292
123 110 100 54 1 9 11 34 36 345 9 11 20 22 348 358 347 5 358 2 356 5 348 339 342 342 358 352 3 345 339 325 314 318 303 302 324 322 330 336 336 337 338 334 331 328 322 322 320 324 324 323 317 317 316 315 315 307 297 295 296 292
175 210 285 192 97 56 83 15 77 65 3 240 300 341 305 302 310 331 330 344 334 336 329 324 318 312 343 348 337 335 327 329 327 325 333 331 319 332 325 327 326 324 325 325 322 323 321 317 312 312 311 307 307 304 305 308 310 310 306 301 293 289
198 201 189 156 170 195 200 237 191 227 241 273 268 197 268 219 247 263 271 296 318 310 314 317 320 332 327 338 316 324 319 318 320 322 327 323 321 325 323 319 322 322 321 317 310 308 310 310 311 311 309 304 301 298 296 295 297 296 298 300 294 295
187 173 202 215 219 216 223 226 238 247 254 246 249 239 250 262 247 247 259 280 299 305 328 319 329 336 327 330 320 327 322 326 320 320 320 308 311 309 309 315 314 314 313 309 308 307 306 307 305 305 301 299 300 299 296 295 293 290 286 284 286 287
192 205 206 202 210 213 219 226 234 238 247 245 246 250 261 277 302 307 290 308 312 331 354 338 341 338 328 317 313 307 307 309 308 308 309 308 305 301 302 302 299 297 298 299 301 304 302 301 302 301 299 296 294 293 294 294 293 292 290 287 283 281
195 189 195 203 206 207 216 228 265 334 340 337 358 337 340 346 338 340 347 2 355 338 354 338 331 320 309 305 307 311 313 314 319 321 320 318 314 315 310 304 309 305 304 300 294 288 289 292 295 295 295 298 300 298 293 290 289 290 289 288 286 282
198 206 209 210 215 223 22 29 24 15 3 1 11 12 9 12 32 40 48 24 28 351 326 312 316 310 314 322 321 322 326 329 330 332 326 325 323 319 320 319 315 314 308 304 302 297 294 293 287 288 291 295 296 296 296 296 294 288 287 285 283 281
212 216 221 260 20 77 108 74 73 63 68 59 41 34 34 24 33 31 29 15 356 347 336 335 327 332 334 333 333 332 336 340 342 338 331 330 324 318 314 311 308 305 306 304 307 306 306 303 299 296 294 290 289 291 290 291 293 294 292 287 281 279
213 219 177 117 97 85 99 92 67 76 82 84 58 44 32 12 34 24 16 6 1 350 335 329 329 335 346 338 342 348 348 347 338 332 329 325 320 318 316 316 316 314 312 309 306 305 302 300 300 302 305 305 302 296 291 288 285 284 285 285 287 284
177 143 129 117 121 124 113 107 95 74 65 46 35 40 18 31 26 26 5 1 344 326 316 316 322 332 331 341 346 346 338 333 329 325 321 316 313 314 314 313 314 314 313 313 312 311 310 306 304 306 307 306 303 302 301 298 295 291 286 284 282 280
147 138 139 148 150 159 138 110 113 109 87 68 54 39 15 22 15 13 7 355 353 347 350 352 350 350 354 351 345 343 342 337 333 327 320 317 316 314 312 315 314 311 315 317 315 312 310 308 309 311 310 309 307 306 306 302 297 293 290 286 282 281
161 160 160 161 152 144 145 131 117 89 57 41 33 22 13 19 16 6 358 352 349 352 354 352 352 354 348 348 343 340 337 333 331 330 327 325 325 322 320 317 314 317 320 316 314 308 306 306 310 311 310 307 306 305 303 300 296 293 289 286 282 280
171 164 156 145 128 109 95 109 90 69 57 43 17 20 20 14 10 0 356 350 347 349 356 357 354 345 342 340 338 332 331 331 327 327 328 323 322 322 320 321 321 319 322 319 314 312 310 311 314 313 309 306 304 303 300 294 290 287 285 284 284 283
162 154 138 128 120 118 114 87 82 82 76 60 19 30 19 10 2 2 343 342 344 1 358 353 347 338 333 331 329 327 324 324 318 317 316 312 315 317 314 316 317 317 319 319 316 310 311 310 315 312 311 311 310 308 303 297 294 288 284 283 280 279
159 134 128 133 135 130 106 78 77 76 61 33 25 28 21 10 355 344 326 347 1 2 348 346 337 329 324 324 321 319 314 311 310 309 310 309 310 314 312 314 315 313 313 314 313 308 306 308 312 313 313 314 310 305 302 292 288 286 285 284 283 284
167 154 139 130 113 95 84 85 75 65 42 28 25 18 10 356 345 322 343 7 354 348 339 334 325 319 317 315 313 310 308 307 303 306 309 304 301 297 298 298 298 303 307 308 306 302 299 304 312 311 310 309 307 305 302 295 287 281 278 278 281 282
134 130 124 115 104 102 96 88 71 63 41 22 12 11 339 342 326 321 10 345 336 329 325 321 314 311 309 308 308 305 304 306 307 304 304 300 299 300 302 297 298 303 301 302 299 299 296 299 308 308 307 306 305 305 297 293 290 288 284 280 277 275
112 120 124 119 102 95 95 86 76 66 44 357 338 331 307 312 289 358 347 323 312 311 309 308 306 303 304 302 299 299 300 300 297 295 302 298 303 300 298 299 299 295 294 296 296 294 296 298 304 306 306 304 302 301 298 295 290 288 289 292 291 292
131 128 118 115 105 92 89 87 82 75 29 259 273 287 287 277 292 338 315 302 300 297 300 298 298 296 296 295 292 294 297 298 295 295 295 289 289 290 298 298 296 294 291 286 288 296 298 295 299 303 304 301 301 301 293 292 287 288 289 291 290 288
124 115 113 111 112 108 98 95 96 98 237 261 263 285 265 265 309 303 296 290 292 293 291 295 293 291 289 290 291 290 287 290 292 291 293 290 287 292 295 293 290 293 294 291 288 290 289 291 292 297 300 301 300 300 298 290 287 287 289 289 294 298
132 134 132 125 127 120 113 112 111 224 242 254 269 259 261 284 299 290 287 291 289 287 288 289 285 286 283 280 286 288 287 287 287 293 291 291 291 286 289 291 289 290 290 290 288 286 287 285 291 293 298 300 300 299 299 289 284 285 286 285 284 277
117 117 116 124 122 121 128 124 133 232 232 252 256 256 275 292 283 287 289 287 288 287 286 282 279 275 279 283 284 288 286 283 283 286 289 287 289 290 289 289 292 290 290 287 285 284 284 287 290 291 293 296 297 298 297 295 285 286 284 283 276 283
138 142 144 136 132 135 148 122 164 220 238 249 259 267 282 277 287 287 285 286 287 285 283 281 280 282 280 282 282 284 288 290 291 287 284 287 289 287 290 293 294 295 292 290 286 281 281 282 281 287 288 291 295 298 298 296 296 294 294 290 287 284
139 143 152 146 140 144 151 143 168 217 247 261 276 284 282 290 286 286 286 285 284 284 283 280 279 276 278 279 283 282 284 290 290 289 288 287 288 294 296 295 293 291 288 291 289 284 281 277 277 280 285 290 291 296 298 298 298 298 293 288 286 288
157 152 163 159 150 176 163 172 158 239 257 266 276 279 282 281 285 288 284 282 282 280 279 280 277 279 275 274 275 284 288 288 292 294 289 288 291 291 293 292 290 286 286 286 285 285 282 276 274 273 277 283 288 292 293 294 294 294 295 293 285 278
135 145 167 208 173 189 181 199 181 247 255 278 286 283 279 281 286 285 281 281 280 281 285 288 284 276 272 273 271 270 277 283 291 290 292 292 288 290 288 287 286 281 281 280 278 280 279 277 275 275 271 268 271 274 279 283 285 286 288 287 287 289
148 165 172 198 210 180 215 227 247 234 266 278 277 278 279 282 278 279 282 284 284 286 285 283 289 290 286 282 280 275 276 280 276 280 286 287 290 286 281 280 279 280 277 278 282 280 281 280 279 278 278 273 270 265 265 270 270 272 275 276 273 273
158 170 176 195 199 181 213 241 247 256 262 267 270 269 277 277 274 277 283 288 288 288 285 284 287 291 297 292 290 292 290 280 274 275 280 287 286 284 279 275 276 278 282 277 278 279 280 283 286 289 291 287 279 272 266 253 250 251 241 258 263 257
162 175 173 197 186 190 238 254 258 260 262 267 270 269 273 273 275 279 285 286 289 286 287 287 292 295 296 297 289 275 275 285 287 279 269 261 254 255 256 234 240 249 268 274 286 291 282 286 290 289 297 299 305 305 303 296 286 269 254 247 261 262
159 166 174 207 190 211 233 258 266 264 261 264 266 262 263 275 285 288 288 287 287 291 295 297 297 296 295 293 295 297 290 282 291 292 294 293 291 290 289 290 292 293 293 292 286 290 295 297 296 304 308 307 306 307 308 307 308 308 306 303 305 310
157 152 176 209 197 219 242 261 264 271 270 258 260 252 258 272 285 286 289 293 292 297 303 301 300 299 296 294 297 298 300 306 302 302 300 298 297 295 294 296 296 299 302 304 305 304 304 305 307 308 308 308 310 313 313 311 311 311 312 314 316 317
164 183 206 203 202 239 258 268 267 258 267 265 260 260 256 268 272 287 292 295 296 301 300 293 294 298 300 302 301 301 305 306 309 309 309 310 304 302 300 299 301 303 308 310 312 313 307 308 309 312 313 314 313 311 310 309 309 312 316 321 327 323
178 184 192 204 229 252 259 261 269 259 258 261 260 264 271 274 273 283 292 292 296 294 297 298 297 299 301 306 310 310 309 308 311 312 315 316 314 310 304 304 307 311 313 316 318 317 315 314 315 317 317 316 315 315 312 311 315 316 318 323 323 319
167 198 214 232 240 246 256 259 263 258 260 262 266 270 261 269 270 275 279 289 291 294 296 296 296 299 301 300 299 299 303 302 302 305 306 312 320 327 327 318 306 307 318 319 320 320 321 322 322 322 321 320 320 320 322 323 325 328 326 324 314 302
197 231 232 235 247 256 261 264 270 266 266 267 270 273 275 276 281 280 277 283 288 281 288 292 294 297 298 299 301 300 301 303 306 306 307 310 314 316 315 317 320 319 323 323 321 322 326 326 325 325 323 326 331 334 334 334 332 328 322 319 306 296
229 236 244 246 251 263 272 273 269 268 264 265 261 266 278 281 280 279 282 278 280 284 279 287 288 293 295 297 297 300 305 306 307 308 305 305 303 302 307 310 313 311 317 324 328 329 330 328 327 327 332 337 340 340 346 342 333 328 329 328 326 322